[[{"header":{"parameterUnit":"m.s-1","parameterCategory":1,"la1":30.2991,"la2":30.254,"lo1":-89.0895,"lo2":-89.0444,"dy":0.0017,"dx":0.0017,"nx":28,"ny":28,"refTime":"2024-08-05T21:00:00:Z","depth":0,"parameterNumber":2,"parameterNumberName":"U-component_of_WINDS"},"data":[0,0,0,0,0,0,0,0,0,0,0,0,0,0,0,0,0,0,0,0,0,0,0,0,0,0,0,0,0,0,0,0,0,0,0,0,0,0,0,0,0,0,0,0,0,0,0,0,0,0,0,0,0,0,0,0,0,0,2.8642,2.8643,0,2.8731,2.8732,2.8733,2.8744,2.8743,2.8742,2.8741,2.8837,2.884,2.8843,0,0,0,0,0,0,0,0,0,0,0,0,0,2.8488,2.8491,2.8642,2.8643,2.8644,2.873,2.8732,2.8733,2.8744,2.8743,2.8742,2.8741,2.8836,2.884,2.8844,0,0,0,0,0,0,0,0,0,0,0,0,0,2.8564,2.8492,2.8641,2.866,2.8662,2.873,2.8732,2.8733,2.8744,2.8743,2.8741,2.874,2.8834,2.8839,2.8844,2.8902,0,0,2.886,2.8862,0,0,0,0,0,0,0,0,2.856,2.857,2.8656,2.8658,2.8661,2.8725,2.8713,2.879,2.8744,2.8713,2.8741,2.8739,2.8801,2.8809,2.8828,2.8906,2.8911,2.886,2.8863,2.8865,2.8867,0,0,0,0,0,0,0,2.8554,2.8566,2.8677,2.8657,2.8661,2.8666,2.8675,2.8728,2.8763,2.8716,2.8717,2.8727,2.8802,2.8823,2.8831,2.8912,2.886,2.8865,2.8868,2.887,2.9048,2.9049,0,0,0,0,0,0,2.8545,2.8561,2.8674,2.868,2.8606,2.867,2.868,2.8706,2.8763,2.877,2.8728,2.8727,2.8815,2.8825,2.8834,2.8909,2.8865,2.887,2.8873,2.9046,2.9048,2.905,0,0,0,0,0,0,2.8542,2.8555,2.8671,2.8621,2.8636,2.8674,2.8703,2.8708,2.8729,2.8772,2.8779,2.8742,2.8815,2.8827,2.8886,2.8912,2.8872,2.8877,2.9044,2.9047,2.9049,2.9057,0,0,0,0,0,0,2.8537,2.8554,2.8574,2.8621,2.8639,2.8719,2.8704,2.8711,2.8737,2.8737,2.8788,2.8795,2.8815,2.8878,2.8891,2.8919,2.8881,2.9042,2.9045,2.9048,2.9054,2.9059,2.9063,0,0,0,0,0,2.8532,2.8573,2.8575,2.8588,2.8664,2.872,2.873,2.8751,2.8739,2.8762,2.879,2.8793,2.8907,2.8884,2.8899,2.8928,2.904,2.9044,2.9048,2.9052,2.9058,2.9063,0,0,0,0,0,0,2.8528,2.8579,2.8582,2.8639,2.8675,2.8722,2.875,2.8756,2.8797,2.8795,2.8821,2.8832,2.8891,2.8915,2.8889,2.899,2.8973,2.898,2.8971,2.8977,2.8982,2.8976,2.8885,0,0,0,0,0,2.8534,2.8573,2.8616,2.8662,2.868,2.8712,2.8737,2.875,2.8789,2.8805,2.8837,2.8876,2.8922,2.895,2.8994,2.9058,2.9071,2.9085,2.909,2.9093,2.91,2.914,2.9148,2.9062,2.9062,2.9062,0,0,2.8546,2.8579,2.8602,2.8662,2.8692,2.8734,2.8725,2.8769,2.8802,2.8812,2.887,2.8895,2.8941,2.9004,2.9033,2.9026,2.9126,2.9098,2.9101,2.9105,2.9145,2.9153,2.916,2.9065,2.9064,2.9064,0,0,2.8591,2.8618,2.8661,2.8691,2.8736,2.8758,2.8768,2.8815,2.8832,2.8891,2.89,2.8941,2.9017,2.905,2.9077,2.9139,2.9146,2.9153,2.9177,2.9216,2.9223,2.9229,2.9255,2.9263,2.9159,2.9159,2.9159,0,2.8601,2.8663,2.8683,2.8728,2.8757,2.8767,2.8813,2.8842,2.8899,2.892,2.8911,2.9009,2.9041,2.9113,2.9129,2.9149,2.9165,2.9148,2.922,2.9226,2.9232,2.9257,2.9266,2.9159,2.9159,2.9159,2.9159,0,2.8676,2.8719,2.8749,2.8804,2.8836,2.8881,2.8911,2.8941,2.8952,2.8976,2.9038,2.9076,2.913,2.9148,2.9158,2.9224,2.9218,2.9214,2.9198,2.9241,2.9265,2.9274,2.9161,2.916,2.916,2.916,0,0,2.872,2.8787,2.8798,2.8825,2.8876,2.8912,2.896,2.9011,2.9038,2.9078,2.9121,2.9187,2.9185,2.9216,2.9231,2.9265,2.9316,2.9257,2.9259,2.927,2.9395,2.94,2.941,2.932,2.9322,2.9323,2.9392,0,2.8773,2.8856,2.8877,2.895,2.8993,2.9005,2.9048,2.9086,2.911,2.9152,2.9179,2.9227,2.9218,2.9238,2.9271,2.9303,2.9342,2.9298,2.9364,2.9366,2.9354,2.9422,2.9426,2.9489,2.9401,2.9403,2.9404,0,2.8845,2.8887,2.8964,2.9014,2.9033,2.907,2.9121,2.916,2.9205,2.9221,2.9257,2.927,2.9324,2.9305,2.9382,2.9351,2.938,2.94,2.9403,2.9412,2.9389,2.9435,2.9509,2.952,2.9418,2.9417,2.9416,0,2.8874,2.8949,2.9006,2.9028,2.9087,2.9114,2.914,2.9183,2.9214,2.926,2.9281,2.9332,2.9361,2.9402,2.943,2.9413,2.9507,2.9489,2.9525,2.9524,2.9545,2.9544,2.9627,2.9559,2.9559,2.9559,2.9558,0,2.8932,2.898,2.902,2.9055,2.911,2.9135,2.919,2.9217,2.9256,2.9299,2.9313,2.9354,2.9387,2.9433,2.9456,2.9519,2.9531,2.9548,2.9554,2.9548,2.9546,2.9569,2.9566,2.9561,2.9561,2.956,2.956,0,2.8974,2.9002,2.9066,2.9116,2.9131,2.9169,2.9214,2.9251,2.9276,2.9331,2.9345,2.9386,2.9442,2.9473,2.9543,2.9559,2.963,2.9632,2.9615,2.9618,2.9653,2.9651,2.9756,2.9773,2.9691,2.9691,2.9692,0,2.901,2.9047,2.9102,2.9132,2.9158,2.9205,2.9237,2.9264,2.9298,2.9354,2.9385,2.9441,2.9488,2.9577,2.9614,2.9669,2.9675,2.9708,2.9684,2.9678,2.968,2.9678,2.9684,2.9713,2.9714,2.9715,2.9715,0,2.9073,2.9086,2.9131,2.9182,2.922,2.9261,2.9303,2.9327,2.9362,2.9399,2.9456,2.9492,2.9565,2.9622,2.968,2.971,2.9721,2.9722,2.9734,2.973,2.972,2.9729,2.9629,2.972,2.972,2.9719,2.9719,2.9719,2.9115,2.915,2.9196,2.9247,2.9281,2.932,2.9358,2.9389,2.9436,2.9496,2.951,2.9571,2.962,2.9699,2.9731,2.9781,2.9776,2.9792,2.9797,2.9801,2.9804,2.9709,2.9792,2.9792,2.9792,2.9791,2.9791,0,2.9182,2.9212,2.9259,2.9317,2.9358,2.9362,2.9409,2.9444,2.9497,2.954,2.9586,2.9654,2.9711,2.9753,2.9812,2.9844,2.9851,2.9859,2.9859,2.9866,2.9804,2.9789,2.9853,2.9853,2.9853,2.9853,2.9853,2.9853,2.9222,2.9282,2.9301,2.9381,2.9412,2.947,2.9498,2.9536,2.9571,2.9645,2.9692,2.9719,2.9764,2.9827,2.988,2.9892,2.9914,2.9923,2.9936,2.9877,2.987,2.9864,2.985,2.9927,2.9927,2.9994,2.9995,2.9996]},{"header":{"parameterUnit":"m.s-1","parameterCategory":1,"la1":30.2991,"la2":30.254,"lo1":-89.0895,"lo2":-89.0444,"dy":0.0017,"dx":0.0017,"nx":28,"ny":28,"refTime":"2024-08-05T21:00:00:Z","depth":0,"parameterNumber":3,"parameterNumberName":"V-component_of_WINDS"},"data":[0,0,0,0,0,0,0,0,0,0,0,0,0,0,0,0,0,0,0,0,0,0,0,0,0,0,0,0,0,0,0,0,0,0,0,0,0,0,0,0,0,0,0,0,0,0,0,0,0,0,0,0,0,0,0,0,0,0,-1.3054,-1.3054,0,-1.3009,-1.3008,-1.3008,-1.3063,-1.3065,-1.3067,-1.3069,-1.302,-1.3016,-1.3013,0,0,0,0,0,0,0,0,0,0,0,0,0,-1.3187,-1.3184,-1.3054,-1.3054,-1.3053,-1.3009,-1.3008,-1.3008,-1.3063,-1.3065,-1.3068,-1.307,-1.3021,-1.3017,-1.3013,0,0,0,0,0,0,0,0,0,0,0,0,0,-1.3134,-1.3183,-1.3054,-1.3075,-1.3077,-1.3009,-1.3008,-1.3007,-1.3062,-1.3065,-1.3068,-1.3071,-1.3022,-1.3017,-1.3012,-1.2921,0,0,-1.2998,-1.2996,0,0,0,0,0,0,0,0,-1.3137,-1.3129,-1.3073,-1.3074,-1.3075,-1.3045,-1.3037,-1.2978,-1.3062,-1.3068,-1.3069,-1.3073,-1.3025,-1.302,-1.3005,-1.2918,-1.2916,-1.2997,-1.2994,-1.2992,-1.2991,0,0,0,0,0,0,0,-1.3141,-1.3131,-1.3036,-1.3072,-1.3073,-1.3087,-1.3082,-1.3026,-1.303,-1.3067,-1.3071,-1.3065,-1.3027,-1.301,-1.3004,-1.2916,-1.2997,-1.2993,-1.299,-1.2988,-1.2753,-1.275,0,0,0,0,0,0,-1.3142,-1.3134,-1.3038,-1.3035,-1.3115,-1.3082,-1.3077,-1.3051,-1.303,-1.303,-1.3063,-1.3068,-1.3016,-1.301,-1.3003,-1.2895,-1.2992,-1.2988,-1.2985,-1.2756,-1.2752,-1.2749,0,0,0,0,0,0,-1.3145,-1.3133,-1.304,-1.3086,-1.3075,-1.3076,-1.3047,-1.3049,-1.3032,-1.3027,-1.3028,-1.3045,-1.3018,-1.301,-1.2941,-1.2894,-1.2985,-1.2981,-1.276,-1.2755,-1.2751,-1.2678,0,0,0,0,0,0,-1.3148,-1.3134,-1.3099,-1.3084,-1.3072,-1.2979,-1.3044,-1.3046,-1.3024,-1.303,-1.301,-1.301,-1.302,-1.2948,-1.2936,-1.2889,-1.2977,-1.2765,-1.2758,-1.2752,-1.2685,-1.2672,-1.266,0,0,0,0,0,-1.3153,-1.308,-1.3097,-1.3085,-1.3029,-1.2976,-1.2969,-1.2983,-1.302,-1.2985,-1.2982,-1.3011,-1.2901,-1.2941,-1.2928,-1.2878,-1.2768,-1.276,-1.2753,-1.2691,-1.2674,-1.266,0,0,0,0,0,0,-1.3087,-1.3078,-1.3097,-1.3017,-1.2997,-1.2986,-1.2942,-1.2965,-1.2934,-1.2941,-1.2959,-1.2954,-1.2882,-1.2873,-1.2917,-1.2789,-1.284,-1.283,-1.2798,-1.2782,-1.277,-1.2773,-1.2973,0,0,0,0,0,-1.3064,-1.3022,-1.3016,-1.2946,-1.2935,-1.294,-1.2918,-1.2931,-1.291,-1.2902,-1.2894,-1.2872,-1.2834,-1.2807,-1.2771,-1.2684,-1.2681,-1.2644,-1.2631,-1.2621,-1.2612,-1.2567,-1.2551,-1.2724,-1.2724,-1.2724,0,0,-1.3014,-1.3004,-1.2976,-1.2933,-1.2919,-1.2875,-1.2933,-1.2884,-1.2852,-1.2894,-1.283,-1.2823,-1.28,-1.2723,-1.2688,-1.2714,-1.2564,-1.2612,-1.2604,-1.26,-1.2558,-1.2541,-1.2527,-1.2719,-1.272,-1.2721,0,0,-1.2902,-1.2889,-1.2831,-1.2816,-1.2795,-1.2799,-1.2785,-1.277,-1.2768,-1.2704,-1.2735,-1.2697,-1.2629,-1.2612,-1.2594,-1.2477,-1.2503,-1.2465,-1.24,-1.2356,-1.2342,-1.233,-1.2289,-1.2274,-1.2456,-1.2456,-1.2455,0,-1.2842,-1.2779,-1.2797,-1.2747,-1.2727,-1.2765,-1.2705,-1.269,-1.2657,-1.2642,-1.2671,-1.2588,-1.2575,-1.2495,-1.2467,-1.2451,-1.2436,-1.2467,-1.2343,-1.2331,-1.232,-1.2281,-1.2266,-1.2451,-1.2452,-1.2452,-1.2453,0,-1.2708,-1.2663,-1.2618,-1.2587,-1.2562,-1.2507,-1.2517,-1.2489,-1.2504,-1.2505,-1.244,-1.2427,-1.2389,-1.2371,-1.2384,-1.2293,-1.2309,-1.234,-1.2392,-1.2299,-1.2263,-1.2248,-1.2445,-1.2446,-1.2448,-1.2449,0,0,-1.2552,-1.2533,-1.2516,-1.2504,-1.2484,-1.245,-1.2396,-1.2361,-1.2337,-1.2314,-1.227,-1.2213,-1.2242,-1.2222,-1.2234,-1.2195,-1.2105,-1.2231,-1.2231,-1.2209,-1.2004,-1.1982,-1.1964,-1.2122,-1.2119,-1.2116,-1.2006,0,-1.244,-1.235,-1.2365,-1.2277,-1.2237,-1.2273,-1.2227,-1.221,-1.2209,-1.2175,-1.2174,-1.2134,-1.2174,-1.2163,-1.2126,-1.2123,-1.2064,-1.2132,-1.2081,-1.2079,-1.2086,-1.1945,-1.1921,-1.1817,-1.1992,-1.199,-1.1988,0,-1.2298,-1.2271,-1.2179,-1.2168,-1.2151,-1.2109,-1.2079,-1.2045,-1.2027,-1.2029,-1.2008,-1.2028,-1.1975,-1.2027,-1.1955,-1.2001,-1.1981,-1.1977,-1.1973,-1.197,-1.2028,-1.1938,-1.1785,-1.1769,-1.1966,-1.1968,-1.1969,0,-1.2195,-1.2135,-1.2073,-1.2061,-1.2045,-1.2016,-1.2007,-1.1992,-1.197,-1.1943,-1.1929,-1.1896,-1.1878,-1.1851,-1.1862,-1.1899,-1.1788,-1.1841,-1.1789,-1.1788,-1.1764,-1.1765,-1.1606,-1.175,-1.175,-1.175,-1.1751,0,-1.2069,-1.2011,-1.2027,-1.1989,-1.1926,-1.1944,-1.1881,-1.1878,-1.1864,-1.1825,-1.1854,-1.1817,-1.1833,-1.1797,-1.1805,-1.1745,-1.1736,-1.1737,-1.1739,-1.1734,-1.1734,-1.1722,-1.173,-1.1746,-1.1747,-1.1748,-1.1749,0,-1.1943,-1.1951,-1.1886,-1.1877,-1.1873,-1.1828,-1.182,-1.1784,-1.1787,-1.1738,-1.1727,-1.1731,-1.1691,-1.1699,-1.1653,-1.1659,-1.1584,-1.1595,-1.159,-1.1593,-1.1541,-1.1546,-1.1369,-1.1347,-1.1504,-1.1502,-1.1501,0,-1.1862,-1.1819,-1.1806,-1.1784,-1.1774,-1.1736,-1.1714,-1.1731,-1.1707,-1.1683,-1.165,-1.1613,-1.1584,-1.1518,-1.1516,-1.1482,-1.1493,-1.1434,-1.1488,-1.1485,-1.1494,-1.1497,-1.1493,-1.1423,-1.1421,-1.1419,-1.1418,0,-1.1719,-1.1726,-1.1694,-1.1664,-1.1638,-1.1614,-1.1594,-1.1573,-1.1588,-1.156,-1.152,-1.1497,-1.1452,-1.1415,-1.1384,-1.1375,-1.1399,-1.1401,-1.1387,-1.1382,-1.1382,-1.1382,-1.1562,-1.1405,-1.1406,-1.1407,-1.1408,-1.1409,-1.1614,-1.1578,-1.1564,-1.1528,-1.1515,-1.1495,-1.1462,-1.1461,-1.1428,-1.1394,-1.1405,-1.136,-1.1343,-1.1304,-1.1292,-1.1256,-1.1279,-1.1258,-1.1254,-1.1249,-1.1243,-1.1387,-1.125,-1.1251,-1.1251,-1.1252,-1.1252,0,-1.1473,-1.1466,-1.1433,-1.1404,-1.1376,-1.1402,-1.1381,-1.1356,-1.1316,-1.1299,-1.127,-1.1225,-1.1189,-1.1185,-1.1151,-1.1124,-1.1134,-1.1114,-1.1117,-1.1115,-1.1224,-1.124,-1.1107,-1.1107,-1.1107,-1.1107,-1.1107,-1.1107,-1.1396,-1.1338,-1.1343,-1.1278,-1.1271,-1.1228,-1.1214,-1.1196,-1.1183,-1.1131,-1.1102,-1.11,-1.1089,-1.1055,-1.1023,-1.1023,-1.101,-1.0986,-1.099,-1.1092,-1.1107,-1.1121,-1.1136,-1.0983,-1.0983,-1.0884,-1.0883,-1.0882]}]]